Flag for U.S.A. Weather past 2 weeks in Aliso Viejo, California, U.S.A.

Now
72 °F

Clear.


Feels Like: 70 °F
Forecast: 69 / 85 °F
Wind: 5 mph from Southwest

Location: John Wayne Airport-Orange County Airport

Current Time: Aug 30, 2015 at 3:15:20 AM

Latest Report: Aug 30, 2015 at 2:53 AM


Visibility: 10 mi

Pressure: 29.85 "Hg

Humidity: 87%

Dew point: 68 °F

Location of Aliso ViejoLocation

Historic Weather in Aliso Viejo — Graph

°F

Aliso Viejo temperature yesterday

Maximum temperature yesterday: 89 °F (at 2:53 PM)
Minimum temperature yesterday: 72 °F (at 4:53 AM)
Average temperature yesterday: 79 °F

Past Weeks' High & Low Weather Summary

 TemperatureHumidityPressure
High91 °F (Aug 28, 11:53 AM)93% (Aug 16, 2:53 AM)29.98 "Hg (Aug 16, 2:53 AM)
Low67 °F (Aug 23, 1:53 AM)32% (Aug 28, 11:53 AM)29.79 "Hg (Aug 16, 5:53 PM)
Average75 °F71%29.89 "Hg
* Reported Aug 15 1:53 AM — Aug 30 1:53 AM, Aliso Viejo, Weather by CustomWeather, © 2015

Note: Actual official high and low records may vary slightly from our data, if they occured in-between our weather recording intervals... More about our weather records

Advertising

Aliso Viejo weather history for previous 24 hours

 ConditionsComfort  
Time TempWeatherWind HumidityBarometerVisibility
1:53 AM
Sun, Aug 30
73 °FClear.5 mph84%29.85 "Hg10 mi
12:53 AM74 °FClear.No wind85%29.85 "Hg10 mi
11:53 PM
Sat, Aug 29
73 °FClear.5 mph88%29.85 "Hg10 mi
10:53 PM75 °FClear.3 mph79%29.85 "Hg10 mi
9:53 PM75 °FClear.No wind76%29.85 "Hg10 mi
8:53 PM76 °FPassing clouds.5 mph74%29.85 "Hg10 mi
7:53 PM78 °FPassing clouds.3 mph66%29.83 "Hg10 mi
6:53 PM81 °FPassing clouds.6 mph58%29.82 "Hg10 mi
5:53 PM83 °FSunny.7 mph57%29.82 "Hg10 mi
4:53 PM85 °FPassing clouds.8 mph55%29.83 "Hg10 mi
3:53 PM84 °FScattered clouds.8 mph55%29.84 "Hg10 mi
2:53 PM89 °FPassing clouds.8 mph39%29.85 "Hg10 mi
1:53 PM88 °FPassing clouds.9 mph43%29.87 "Hg10 mi
12:53 PM87 °FPassing clouds.9 mph43%29.88 "Hg10 mi
11:53 AM87 °FSunny.7 mph46%29.89 "Hg10 mi
10:53 AM85 °FSunny.No wind51%29.90 "Hg10 mi
9:53 AM82 °FSunny.3 mph56%29.89 "Hg10 mi
8:53 AM78 °FSunny.No wind71%29.89 "Hg10 mi
7:53 AM75 °FSunny.No wind79%29.88 "Hg10 mi
6:53 AM72 °FClear.No wind84%29.87 "Hg10 mi
5:53 AM72 °FClear.No wind71%29.84 "Hg10 mi
4:53 AM72 °FClear.No wind66%29.84 "Hg10 mi
3:53 AM74 °FClear.No wind67%29.85 "Hg10 mi
Weather by CustomWeather, © 2015

See weather overviewHow to use our weather pages